{"data":{"norad_id":53985,"epoch":"2026-05-24T23:04:05.528640Z","epoch_age_seconds":88838,"freshness":"FRESH","line1":"1 53985U 22125X   26144.96117510  .00000436  00000+0  45501-4 0  9990","line2":"2 53985  53.2144 231.9591 0001103  84.2523 275.8595 15.08839777200974","mean_motion":15.08839777,"eccentricity":0.0001103,"inclination_deg":53.2144,"raan_deg":231.9591,"arg_perigee_deg":84.2523,"mean_anomaly_deg":275.8595,"bstar":4.5501e-5,"rev_number":20097,"period_min":95.437568783024,"perigee_km":538.98102830389,"apogee_km":540.50711286806,"semimajor_km":6917.881070586,"source":"CELESTRAK","updated_at":"2026-05-25T13:38:17.621061Z"}}